Powrót do katalogu

OBJECT G

AktywnySSO
NORAD 100135·UNKNOWN·🇨🇳 China

Wystrzelony Jul 22, 2026 z Yellow Sea Launch Area

Loading…

Następne Przeloty (najbliższe 24 godziny)

TLE

ŚwieżeSource: Space-Track

Epoka: Sep 14, 2026, 04:24 UTC

1 A0135U 26168G   26257.18376115  .00003115  00000-0  19598-3 0  9991
2 A0135  97.5309 337.9778 0021106 144.2042 216.0607 15.09760537  8165

Śledź OBJECT G w czasie rzeczywistym z AllMySat

Download on the App Store